[[{"header":{"parameterUnit":"m.s-1","parameterCategory":1,"la1":30.2991,"la2":30.254,"lo1":-89.0895,"lo2":-89.0444,"dy":0.0017,"dx":0.0017,"nx":28,"ny":28,"refTime":"2024-03-25T03:00:00:Z","depth":0,"parameterNumber":2,"parameterNumberName":"U-component_of_WINDS"},"data":[0,0,0,0,0,0,0,0,0,0,0,0,0,0,0,0,0,0,0,0,0,0,0,0,0,0,0,0,0,0,0,0,0,0,0,0,0,0,0,0,0,0,0,0,0,0,0,0,0,0,0,0,0,0,0,0,0,0,-5.0423,-5.0423,0,-5.0372,-5.0371,-5.037,-5.0246,-5.0243,-5.0241,-5.0238,-5.0188,-5.019,-5.0191,0,0,0,0,0,0,0,0,0,0,0,0,0,-5.0419,-5.042,-5.0424,-5.0423,-5.0422,-5.0372,-5.0371,-5.037,-5.0246,-5.0243,-5.024,-5.0237,-5.0188,-5.0189,-5.0191,0,0,0,0,0,0,0,0,0,0,0,0,0,-5.04,-5.042,-5.0424,-5.0354,-5.0347,-5.0372,-5.0371,-5.037,-5.0247,-5.0243,-5.0239,-5.0235,-5.0188,-5.0189,-5.0191,-5.028,0,0,-5.0196,-5.0197,0,0,0,0,0,0,0,0,-5.0401,-5.04,-5.0365,-5.0359,-5.0351,-5.0311,-5.0351,-5.034,-5.0248,-5.0285,-5.0238,-5.0233,-5.0233,-5.023,-5.0229,-5.0277,-5.0275,-5.0196,-5.0197,-5.0198,-5.0198,0,0,0,0,0,0,0,-5.0403,-5.0402,-5.0403,-5.0365,-5.0356,-5.0327,-5.032,-5.0348,-5.0282,-5.0282,-5.0272,-5.0268,-5.0228,-5.0228,-5.0227,-5.0274,-5.0196,-5.0198,-5.0199,-5.0199,-5.0392,-5.0396,0,0,0,0,0,0,-5.0413,-5.0404,-5.0405,-5.0401,-5.0367,-5.033,-5.0322,-5.0328,-5.0281,-5.027,-5.0271,-5.0262,-5.0227,-5.0225,-5.0225,-5.0324,-5.0198,-5.0199,-5.02,-5.0388,-5.0393,-5.0397,0,0,0,0,0,0,-5.0414,-5.0415,-5.0407,-5.04,-5.0397,-5.0334,-5.0342,-5.0329,-5.0328,-5.0273,-5.0261,-5.0283,-5.0224,-5.0223,-5.0266,-5.032,-5.02,-5.0202,-5.0383,-5.0389,-5.0395,-5.0524,0,0,0,0,0,0,-5.0414,-5.0416,-5.0447,-5.0402,-5.0398,-5.0448,-5.0345,-5.0331,-5.0331,-5.0319,-5.0281,-5.0271,-5.0221,-5.0265,-5.0268,-5.032,-5.0203,-5.0378,-5.0386,-5.0393,-5.0514,-5.0533,-5.055,0,0,0,0,0,-5.0415,-5.0487,-5.045,-5.0451,-5.0436,-5.0451,-5.0449,-5.0389,-5.0336,-5.0368,-5.0333,-5.0272,-5.0315,-5.027,-5.0273,-5.0327,-5.0374,-5.0383,-5.0392,-5.0506,-5.053,-5.0549,0,0,0,0,0,0,-5.0542,-5.0479,-5.0438,-5.0497,-5.048,-5.043,-5.0468,-5.0416,-5.0415,-5.0404,-5.0331,-5.0323,-5.0377,-5.0357,-5.0308,-5.041,-5.0335,-5.0345,-5.042,-5.0442,-5.046,-5.0462,-5.0204,0,0,0,0,0,-5.0577,-5.0593,-5.0539,-5.0596,-5.059,-5.0532,-5.0536,-5.0491,-5.0471,-5.0464,-5.0431,-5.0416,-5.0425,-5.0433,-5.0439,-5.0512,-5.0501,-5.0551,-5.0569,-5.0584,-5.0592,-5.0628,-5.0649,-5.0427,-5.0427,-5.0427,0,0,-5.0649,-5.0617,-5.0632,-5.0621,-5.0603,-5.0622,-5.0526,-5.0551,-5.0565,-5.0468,-5.0506,-5.0483,-5.046,-5.0519,-5.0543,-5.0504,-5.0652,-5.0595,-5.0608,-5.0608,-5.064,-5.0661,-5.068,-5.0434,-5.0433,-5.0432,0,0,-5.0789,-5.0768,-5.0812,-5.0796,-5.0769,-5.073,-5.0741,-5.07,-5.068,-5.0717,-5.0644,-5.0661,-5.068,-5.0666,-5.0662,-5.08,-5.0743,-5.0805,-5.0896,-5.0932,-5.095,-5.0965,-5.1012,-5.103,-5.0814,-5.0815,-5.0815,0,-5.0882,-5.0907,-5.0842,-5.0871,-5.0868,-5.0782,-5.0827,-5.0815,-5.0793,-5.0793,-5.075,-5.0771,-5.075,-5.0803,-5.0837,-5.0838,-5.0848,-5.0806,-5.0952,-5.0967,-5.098,-5.1024,-5.1042,-5.0822,-5.0821,-5.082,-5.082,0,-5.1021,-5.104,-5.108,-5.1059,-5.1061,-5.1099,-5.1041,-5.1051,-5.1008,-5.0974,-5.1013,-5.0985,-5.0984,-5.0994,-5.0952,-5.1042,-5.1018,-5.0965,-5.0887,-5.1009,-5.1049,-5.1066,-5.0832,-5.083,-5.0828,-5.0826,0,0,-5.1237,-5.118,-5.1196,-5.1185,-5.115,-5.1164,-5.1199,-5.1196,-5.1205,-5.1195,-5.122,-5.1239,-5.119,-5.1185,-5.1142,-5.1174,-5.1282,-5.1116,-5.1115,-5.1146,-5.1377,-5.1415,-5.1435,-5.1246,-5.1249,-5.1252,-5.1378,0,-5.1366,-5.1419,-5.1363,-5.1427,-5.1443,-5.1363,-5.1393,-5.1376,-5.1346,-5.1356,-5.1324,-5.1337,-5.1272,-5.1268,-5.1297,-5.1263,-5.1327,-5.1254,-5.1269,-5.127,-5.1273,-5.1457,-5.1496,-5.1617,-5.1394,-5.1396,-5.1398,0,-5.1523,-5.1517,-5.1583,-5.1544,-5.1549,-5.1577,-5.1569,-5.1581,-5.1561,-5.1536,-5.1532,-5.148,-5.1511,-5.1439,-5.1481,-5.1432,-5.1436,-5.1421,-5.1424,-5.142,-5.1339,-5.1455,-5.1654,-5.1671,-5.1423,-5.1421,-5.1419,0,-5.167,-5.168,-5.172,-5.1714,-5.167,-5.1691,-5.1674,-5.165,-5.1652,-5.1647,-5.1647,-5.1647,-5.1647,-5.1648,-5.1597,-5.1549,-5.1646,-5.1569,-5.1626,-5.1627,-5.1647,-5.1646,-5.1846,-5.1656,-5.1655,-5.1655,-5.1655,0,-5.1818,-5.1861,-5.1785,-5.1809,-5.1856,-5.1792,-5.184,-5.1815,-5.1795,-5.1813,-5.1746,-5.1765,-5.1698,-5.1711,-5.1673,-5.1713,-5.1714,-5.1695,-5.1683,-5.1699,-5.1701,-5.1698,-5.1687,-5.166,-5.1659,-5.1658,-5.1657,0,-5.1988,-5.1939,-5.1977,-5.1933,-5.1923,-5.1959,-5.1922,-5.1943,-5.191,-5.1934,-5.1937,-5.1885,-5.1896,-5.1847,-5.1851,-5.1824,-5.1884,-5.186,-5.189,-5.1881,-5.194,-5.1934,-5.2142,-5.2165,-5.1964,-5.1966,-5.1967,0,-5.2084,-5.2115,-5.2074,-5.2081,-5.2068,-5.2081,-5.2082,-5.2022,-5.2027,-5.2007,-5.2031,-5.2037,-5.2037,-5.206,-5.2023,-5.2026,-5.2,-5.2073,-5.1999,-5.2014,-5.1997,-5.1995,-5.1997,-5.2087,-5.2089,-5.2091,-5.2093,0,-5.2259,-5.2233,-5.2237,-5.2234,-5.2237,-5.2232,-5.2222,-5.2232,-5.2167,-5.2177,-5.2187,-5.2188,-5.2191,-5.2198,-5.2193,-5.2177,-5.2124,-5.2117,-5.213,-5.2144,-5.2159,-5.2149,-5.1928,-5.2112,-5.211,-5.2108,-5.2107,-5.2107,-5.2393,-5.2416,-5.239,-5.2397,-5.2384,-5.2376,-5.2393,-5.2362,-5.237,-5.2366,-5.2332,-5.2349,-5.2329,-5.2316,-5.2306,-5.2319,-5.2284,-5.2304,-5.2308,-5.2313,-5.2322,-5.216,-5.2318,-5.2318,-5.2317,-5.2317,-5.2316,0,-5.2561,-5.2541,-5.2549,-5.2536,-5.2542,-5.2493,-5.248,-5.2488,-5.2503,-5.2488,-5.2491,-5.2503,-5.251,-5.2474,-5.2476,-5.2493,-5.2469,-5.2495,-5.2492,-5.2488,-5.2354,-5.2341,-5.2515,-5.2514,-5.2514,-5.2514,-5.2514,-5.2514,-5.2649,-5.2685,-5.2657,-5.2686,-5.2666,-5.2681,-5.2678,-5.2671,-5.2658,-5.2675,-5.2679,-5.2656,-5.2633,-5.2633,-5.2637,-5.2626,-5.2629,-5.2663,-5.2644,-5.2518,-5.2498,-5.248,-5.2467,-5.2665,-5.2665,-5.2777,-5.2778,-5.2779]},{"header":{"parameterUnit":"m.s-1","parameterCategory":1,"la1":30.2991,"la2":30.254,"lo1":-89.0895,"lo2":-89.0444,"dy":0.0017,"dx":0.0017,"nx":28,"ny":28,"refTime":"2024-03-25T03:00:00:Z","depth":0,"parameterNumber":3,"parameterNumberName":"V-component_of_WINDS"},"data":[0,0,0,0,0,0,0,0,0,0,0,0,0,0,0,0,0,0,0,0,0,0,0,0,0,0,0,0,0,0,0,0,0,0,0,0,0,0,0,0,0,0,0,0,0,0,0,0,0,0,0,0,0,0,0,0,0,0,2.1359,2.136,0,2.1463,2.1464,2.1466,2.1496,2.1496,2.1495,2.1495,2.1598,2.1601,2.1604,0,0,0,0,0,0,0,0,0,0,0,0,0,2.1185,2.1188,2.1359,2.1361,2.1362,2.1463,2.1464,2.1466,2.1497,2.1496,2.1495,2.1495,2.1597,2.16,2.1604,0,0,0,0,0,0,0,0,0,0,0,0,0,2.1272,2.1189,2.1359,2.1389,2.1393,2.1463,2.1465,2.1466,2.1497,2.1496,2.1495,2.1494,2.1595,2.16,2.1605,2.1651,0,0,2.162,2.1622,0,0,0,0,0,0,0,0,2.1267,2.1278,2.1384,2.1387,2.1392,2.1466,2.1441,2.1528,2.1497,2.1457,2.1495,2.1494,2.1554,2.1563,2.1584,2.1655,2.166,2.162,2.1623,2.1625,2.1627,0,0,0,0,0,0,0,2.1261,2.1274,2.14,2.1385,2.139,2.1397,2.1409,2.1458,2.1509,2.1461,2.1463,2.1475,2.1556,2.1579,2.1586,2.1661,2.162,2.1624,2.1627,2.1629,2.1778,2.1779,0,0,0,0,0,0,2.125,2.1269,2.1397,2.1403,2.1326,2.1401,2.1414,2.1443,2.1508,2.1518,2.1476,2.1476,2.1571,2.1581,2.159,2.1649,2.1625,2.163,2.1632,2.1777,2.1778,2.1779,0,0,0,0,0,0,2.1246,2.1261,2.1393,2.1337,2.1354,2.1405,2.1437,2.1445,2.1468,2.152,2.1529,2.149,2.1571,2.1583,2.1636,2.1653,2.1632,2.1636,2.1775,2.1777,2.1778,2.1767,0,0,0,0,0,0,2.1241,2.126,2.1278,2.1337,2.1357,2.1438,2.1438,2.1448,2.1477,2.1478,2.1535,2.1544,2.1571,2.1629,2.1641,2.166,2.164,2.1774,2.1776,2.1778,2.1766,2.1768,2.177,0,0,0,0,0,2.1235,2.127,2.1279,2.1294,2.1381,2.1439,2.145,2.1482,2.1478,2.1497,2.153,2.1542,2.1649,2.1634,2.1648,2.1668,2.1773,2.1776,2.1778,2.1765,2.1768,2.177,0,0,0,0,0,0,2.121,2.1278,2.1289,2.1344,2.1386,2.1444,2.1468,2.1483,2.1525,2.1525,2.1561,2.1574,2.1624,2.1651,2.1633,2.1717,2.1712,2.1717,2.1697,2.17,2.1702,2.1694,2.1644,0,0,0,0,0,2.1211,2.1253,2.131,2.1353,2.1373,2.1417,2.1443,2.1464,2.1508,2.1526,2.1563,2.1604,2.1648,2.1675,2.1718,2.177,2.1783,2.1791,2.1793,2.1794,2.1798,2.183,2.1834,2.1787,2.1787,2.1787,0,0,2.1213,2.1255,2.1279,2.1349,2.1383,2.1426,2.1431,2.1475,2.1507,2.1532,2.1585,2.1614,2.1662,2.1716,2.1741,2.174,2.1814,2.1797,2.1798,2.1801,2.1832,2.1837,2.1841,2.1788,2.1788,2.1788,0,0,2.1239,2.1275,2.1316,2.1351,2.1404,2.1433,2.1443,2.15,2.152,2.1574,2.1594,2.1632,2.1705,2.174,2.1766,2.1807,2.182,2.182,2.1829,2.1859,2.1863,2.1866,2.1882,2.1887,2.1824,2.1824,2.1824,0,2.1235,2.13,2.1334,2.1378,2.1408,2.1434,2.1476,2.1508,2.1571,2.1591,2.1589,2.1683,2.1718,2.178,2.1791,2.1811,2.1824,2.1814,2.186,2.1864,2.1867,2.1883,2.1888,2.1823,2.1823,2.1823,2.1823,0,2.1293,2.1338,2.1364,2.1427,2.146,2.1502,2.1543,2.1572,2.159,2.162,2.1675,2.1717,2.1769,2.1786,2.1803,2.1851,2.1849,2.1853,2.1848,2.1871,2.1886,2.1892,2.1823,2.1823,2.1823,2.1823,0,0,2.1306,2.1388,2.1397,2.1427,2.1488,2.1523,2.1566,2.1619,2.1644,2.1687,2.1725,2.1787,2.1792,2.1822,2.1844,2.187,2.1901,2.1871,2.1873,2.1876,2.1958,2.1955,2.1962,2.191,2.1911,2.1912,2.1954,0,2.134,2.1421,2.1453,2.1518,2.1561,2.1586,2.1624,2.1666,2.1694,2.1734,2.1765,2.181,2.1812,2.1831,2.1858,2.1892,2.1918,2.1889,2.1945,2.1947,2.1933,2.1969,2.1966,2.2004,2.196,2.1961,2.1962,0,2.1391,2.1437,2.1506,2.1564,2.1583,2.1617,2.1668,2.1706,2.1753,2.1772,2.1808,2.1828,2.1875,2.1867,2.1932,2.1911,2.1936,2.1956,2.1959,2.1966,2.1956,2.1978,2.2017,2.2023,2.1971,2.1971,2.197,0,2.1395,2.1474,2.1526,2.155,2.1618,2.1641,2.1671,2.1717,2.1748,2.1792,2.1812,2.1861,2.1888,2.1925,2.1958,2.1949,2.202,2.2015,2.2038,2.2037,2.2052,2.2051,2.2096,2.2066,2.2066,2.2066,2.2066,0,2.1431,2.1473,2.1529,2.1561,2.1609,2.1646,2.1692,2.1723,2.1764,2.1803,2.1827,2.1862,2.1904,2.1944,2.197,2.2021,2.2032,2.2049,2.2055,2.2047,2.2045,2.2065,2.2063,2.2068,2.2067,2.2067,2.2067,0,2.1444,2.1483,2.1542,2.1602,2.1618,2.1651,2.1702,2.1734,2.1764,2.1813,2.1826,2.1873,2.1922,2.1959,2.2022,2.204,2.2094,2.21,2.2078,2.2082,2.2103,2.2101,2.2163,2.2174,2.2135,2.2136,2.2136,0,2.1465,2.1498,2.1562,2.1591,2.162,2.1665,2.1696,2.1734,2.1765,2.1823,2.1848,2.1899,2.1942,2.2019,2.2059,2.2107,2.2116,2.2134,2.2123,2.2114,2.2117,2.2116,2.2119,2.2136,2.2136,2.2136,2.2136,0,2.1498,2.1517,2.1561,2.1614,2.1651,2.1693,2.1736,2.1757,2.1803,2.1837,2.1888,2.1922,2.1987,2.2038,2.2091,2.212,2.2136,2.214,2.2148,2.214,2.2127,2.2136,2.2084,2.2138,2.2138,2.2138,2.2138,2.2138,2.1517,2.1548,2.1599,2.1648,2.1685,2.1725,2.1758,2.1794,2.1838,2.1895,2.1914,2.1967,2.2015,2.2088,2.2118,2.2159,2.2159,2.2171,2.2174,2.2176,2.2176,2.2119,2.2169,2.2169,2.2169,2.2169,2.2169,0,2.1553,2.1587,2.1632,2.1692,2.1731,2.1744,2.1792,2.1824,2.1871,2.1915,2.1957,2.2017,2.2066,2.211,2.2161,2.2187,2.2195,2.2199,2.2198,2.2205,2.2173,2.2161,2.2191,2.2191,2.2191,2.2191,2.2191,2.2191,2.1576,2.1631,2.1655,2.1727,2.1761,2.1814,2.1841,2.1878,2.1913,2.1979,2.2021,2.205,2.2093,2.2148,2.2194,2.2206,2.2224,2.2226,2.224,2.2209,2.2207,2.2204,2.2194,2.223,2.223,2.2268,2.2269,2.2269]}]]